Location: Eggenrot
(48.9768°N, 10.0892°E)
Time: 23:27:33
(UTC+00:00)

Daily predictions for brighter satellites

Satellite Brightness Start Highest point End
(mag) Time Altitude Azimuth Time Altitude Azimuth Time Altitude Azimuth
Thor Agena Rocket 3.8 15:48:44 10° SE 15:53:40 46° ENE 15:58:35 10° N
BlueWalker 3 2.1 15:52:22 10° WNW 15:55:59 72° SSW 15:59:36 10° SE
Cosmos 1356 Rocket 3.3 15:54:17 10° S 15:58:18 78° E 16:02:25 10° NNE
Meteor 1-28 Rocket 3.4 15:56:48 10° NNE 15:59:59 39° E 16:03:08 10° S
Cosmos 2026 Rocket 4.3 15:55:06 10° NNW 16:01:20 75° W 16:07:36 10° S
Cosmos 1544 Rocket 4.0 15:59:09 10° SSE 16:03:16 41° E 16:07:27 10° NNE
Cosmos 1484 Rocket 2.4 16:00:29 10° SSE 16:04:00 76° ENE 16:07:31 10° N
Cosmos 1697 Rocket 4.1 16:00:52 10° SE 16:04:41 19° E 16:08:32 10° ENE
NOSS 2-2 (E) 3.5 16:01:56 10° SSW 16:05:09 39° SE 16:08:01 10° NE
BREEZE M DEB (TANK) 4.2 15:48:58 10° WNW 16:06:49 82° SSW 16:11:09 10° ESE
Intercosmos 24 3.7 16:05:13 10° N 16:09:09 63° ENE 16:12:40 10° SSE
Cosmos 1634 Rocket 4.0 16:03:09 10° S 16:09:20 82° E 16:15:31 10° N
Cosmos 405 Rocket 2.1 16:06:04 10° N 16:09:21 76° ENE 16:12:34 10° SSE
Okean 1-7 Rocket 4.5 16:07:45 10° N 16:11:32 27° ENE 16:15:16 10° SE
Lacrosse 5 rocket 1.7 16:09:15 10° WSW 16:12:53 46° NNW 16:16:22 11° NE
Cosmos 1461 4.0 16:14:12 10° S 16:17:22 24° ESE 16:20:09 12° ENE
CENTAUR R/B 3.0 16:11:53 10° WSW 16:17:35 57° NW 16:24:49 10° NE
Meteor 1-20 Rocket 4.4 16:15:22 10° N 16:20:38 47° ENE 16:25:53 10° SE
Cosmos 1455 Rocket 4.4 16:17:37 10° SW 16:21:42 40° WNW 16:25:50 10° N
Cosmos 1602 Rocket 3.7 16:19:04 10° N 16:23:21 48° ENE 16:27:34 10° SSE
Cosmos 2279 Rocket 4.0 16:17:44 10° S 16:23:55 75° E 16:30:10 10° NNE
Cosmos 1570 Rocket 4.5 16:21:30 10° NNW 16:26:50 69° WSW 16:32:05 10° S
IRIDIUM 103 4.5 16:23:29 10° N 16:28:35 51° E 16:33:39 10° SSE
SMAP 3.0 16:25:37 10° SSE 16:30:14 73° ENE 16:34:55 10° N
Cosmos 1656 3.7 16:26:08 10° SSW 16:31:44 80° ESE 16:37:27 10° NNE
UNK 3.7 16:28:20 10° NNE 16:32:54 62° ESE 16:37:25 10° S
YAOGAN 1 3.8 16:31:11 10° ESE 16:34:17 20° ENE 16:37:24 10° NNE
Cosmos 2228 3.7 16:31:07 10° SSW 16:35:16 54° WNW 16:39:27 10° N
NOSS 2-2 (C) 3.8 16:32:42 10° WSW 16:35:40 36° NW 16:38:06 13° NNE
Landsat 7 3.7 16:31:09 10° SSE 16:35:44 64° ENE 16:40:22 10° N
SAR-Lupe-4 3.6 16:32:34 10° SSE 16:36:03 55° ENE 16:39:33 10° N
Cosmos 1867 3.7 16:31:01 10° NNW 16:36:25 56° NE 16:41:46 10° SE
Cosmos 1486 Rocket 4.0 16:31:37 10° S 16:36:46 68° ESE 16:42:00 10° NNE
Cosmos 2297 Rocket 2.2 16:34:42 10° NNW 16:40:25 89° WSW 16:46:05 10° SSE
USA 290 2.1 16:37:10 10° NNW 16:40:26 87° ENE 16:43:42 10° SSE
USA 215 3.8 16:35:28 14° ENE 16:40:43 44° N 16:46:52 10° WNW
Cosmos 2180 Rocket 4.4 16:35:22 10° S 16:41:27 72° E 16:47:36 10° NNE
Cosmos 773 Rocket 4.4 16:38:28 10° NNW 16:43:39 68° WSW 16:48:50 10° S
SAR-Lupe-1 4.0 16:41:33 10° SSE 16:45:06 61° ENE 16:48:41 10° N
Cosmos 1782 2.8 16:42:05 10° SSW 16:45:39 69° W 16:49:15 10° N
Cosmos 1953 Rocket 4.4 16:42:20 10° N 16:46:08 27° ENE 16:49:57 10° SE
IRIDIUM 106 4.3 16:41:44 10° N 16:46:58 72° E 16:52:10 10° S
ATLAS CENTAUR R/B 2.0 16:44:18 10° NW 16:47:23 42° WSW 16:50:22 10° SSE
CZ-4C R/B 2.9 16:41:35 10° NW 16:48:26 81° NE 16:57:02 10° SE
Cosmos 1607 4.0 16:43:26 10° NW 16:49:42 84° SW 16:56:00 10° SSE
Cosmos 1733 4.1 16:48:43 10° NW 16:49:58 19° W 16:51:12 10° SW
CZ-2D R/B 2.6 16:48:29 10° SSE 16:51:37 81° ENE 16:54:47 10° N
IRS-P3 4.0 16:49:18 10° SSE 16:54:33 68° ENE 16:59:51 10° N
Lacrosse 4 Rocket 3.5 16:52:41 10° W 16:55:38 19° NW 16:58:33 10° N
Meteor 1-25 Rocket 4.2 16:50:12 10° N 16:56:02 70° ENE 17:01:47 10° SSE
ARIANE 5 R/B 2.5 16:51:16 10° SSE 16:56:19 86° WSW 17:01:29 10° NNW
Cosmos 990 Rocket 4.4 16:51:59 10° S 16:56:45 40° ESE 16:59:47 20° NE
Cosmos 2219 4.0 16:52:03 10° NNW 16:57:03 30° NE 16:59:37 21° E
Cosmos 1825 Rocket 3.6 16:52:51 10° N 16:57:08 54° ENE 17:01:22 10° SSE
NOSS 2-3 (E) 4.4 16:56:00 10° S 16:58:57 23° ESE 16:59:21 23° ESE
Cosmos 2266 Rocket 3.9 16:53:20 10° N 16:59:33 86° E 17:05:37 10° S
NOSS 2-3 (D) 4.4 16:58:00 10° S 17:00:57 23° ESE 17:01:12 22° ESE
Cosmos 2098 Rocket 3.5 16:58:03 10° SSW 17:02:04 63° WNW 17:06:52 10° N
Meteor 1-5 Rocket 4.2 16:58:18 10° N 17:03:32 52° ENE 17:08:49 10° SSE
Cosmos 2151 3.3 17:00:36 10° NNW 17:04:44 66° W 17:08:51 10° S
Cosmos 1743 3.6 17:02:16 10° NNW 17:05:21 41° W 17:08:25 10° SSW
SPOT 1/Viking Rocket 3.5 17:01:11 10° SSE 17:06:16 59° ENE 17:11:24 10° N
Cosmos 1980 Rocket 3.1 17:02:19 10° SSE 17:06:58 27° ESE 17:08:00 25° E
Cosmos 1844 Rocket 4.3 17:07:46 10° N 17:10:59 17° NNE 17:10:59 17° NNE
SL-16 R/B 3.7 17:09:41 10° N 17:15:29 42° WNW 17:21:13 10° SW
Cosmos 2058 Rocket 4.2 17:11:56 10° SSE 17:14:42 26° ESE 17:14:42 26° ESE
Cosmos 2263 Rocket 2.3 17:13:15 10° NNW 17:18:48 52° NE 17:23:09 16° SE
NOSS 3-2 (C) 3.1 17:14:27 10° SW 17:19:31 90° SE 17:23:02 26° NE
NOSS 3-2 (A) 3.9 17:14:51 10° WSW 17:19:53 47° NW 17:24:05 19° NNE
CZ-4 R/B 4.2 17:19:13 10° SSE 17:23:09 84° ENE 17:27:08 10° NNW
GEOS 3 Rocket 4.2 17:19:36 19° NNE 17:23:19 55° NW 17:28:33 10° WSW
MOS 1 Rocket 3.8 17:18:46 10° S 17:23:36 68° W 17:28:46 10° NNW
BREEZE M DEB (TANK) 2.9 17:23:47 10° WSW 17:25:20 36° SW 17:25:20 36° SW
Cosmos 1076 Rocket 3.3 17:22:12 10° N 17:26:30 70° ENE 17:30:48 10° SSE
Cosmos 1933 3.4 17:24:23 10° SSW 17:28:12 71° W 17:30:45 20° N
Cosmos 2084 Rocket 4.3 17:27:24 10° NW 17:31:28 49° SW 17:35:32 10° SSE
Cosmos 2227 Rocket 2.2 17:25:55 10° NNW 17:31:35 81° WSW 17:37:14 10° SSE
Cosmos 1606 Rocket 3.7 17:27:16 10° SSW 17:31:40 76° W 17:35:23 15° N
Cosmos 1538 Rocket 4.0 17:27:18 10° NNW 17:32:33 62° ENE 17:36:28 18° SE
PSLV R/B 3.2 17:36:04 63° E 17:36:15 64° ENE 17:40:16 10° N
CZ-2D R/B 3.4 17:32:49 10° SSE 17:37:02 90° WSW 17:41:13 10° NNW
COSMO-SKYMED 1 2.6 17:39:14 53° SE 17:39:14 53° SE 17:42:48 10° S
Meteor 2-2 Rocket 4.4 17:35:04 10° SSE 17:40:23 45° E 17:40:36 45° E
SL-19 R/B 4.1 17:35:21 10° SSE 17:40:41 74° ENE 17:46:21 10° NNW
Resurs 1-3 3.4 17:36:45 10° SSE 17:41:03 80° ENE 17:45:22 10° NNW
Cosmos 1244 Rocket 4.5 17:35:35 10° N 17:41:49 58° ENE 17:47:55 10° SSE
BREEZE-M DEB (TANK) 3.9 17:40:20 10° W 17:44:00 86° SSW 17:48:33 31° ESE
Meteor 2-20 4.3 17:41:08 10° S 17:47:18 82° E 17:53:29 10° NNE
Cosmos 1697 Rocket 2.7 17:42:22 10° SSW 17:47:58 77° WNW 17:50:44 31° NNE
Lacrosse 5 rocket 2.9 17:47:31 10° WNW 17:49:58 22° NNW 17:49:58 22° NNW
Cosmos 1354 Rocket 4.3 17:45:29 10° SSW 17:50:42 65° WNW 17:53:34 27° N
BREEZE-M DEB (TANK) 4.2 17:49:25 10° WNW 17:53:17 70° NNE 17:57:03 38° E
Cosmos 1461 3.5 17:50:11 10° WSW 17:53:56 44° NW 17:54:18 43° NNW
Spot 4 Rocket 4.1 17:49:42 10° S 17:54:48 75° WSW 17:59:57 10° NNW
IRAS Rocket 4.1 17:50:28 10° SSE 17:55:58 87° WSW 18:01:29 10° NNW
Cosmos 1726 Rocket 4.2 17:52:24 10° SSW 17:56:59 59° WNW 17:59:49 22° N
SL-08 R/B 4.4 17:53:48 10° N 18:00:07 66° ENE 18:06:24 10° SSE
Cosmos 1655 Rocket 4.4 17:54:38 10° NNW 18:00:47 64° W 18:06:55 10° S
SKYMED 2 4.1 17:59:35 35° N 18:01:13 58° WNW 18:05:28 10° SSW
Gbstr 26 Del rocket 3.5 17:59:44 10° WSW 18:02:38 46° SW 18:02:38 46° SW
Cosmos 1898 Rocket 4.2 17:59:57 10° S 18:03:17 38° SSE 18:03:17 38° SSE
Meteor 2-10 4.2 18:02:47 10° NNW 18:08:07 76° W 18:13:37 10° S
Meteor 2-20 Rocket 4.3 18:03:10 10° S 18:09:26 86° E 18:12:29 32° NNE
YAOGAN 1 3.3 18:05:40 10° S 18:09:48 50° W 18:13:59 10° NNW
CENTAUR R/B 4.1 18:04:13 10° WNW 18:09:50 29° N 18:12:27 24° NNE
USA 281 4.4 18:17:15 26° NNE 18:17:15 26° NNE 18:20:47 10° NNW
Cosmos 2082 3.7 18:11:54 10° NNW 18:17:03 69° N 18:17:03 69° N
Meteor 1-26 Rocket 4.0 18:13:02 10° S 18:18:03 78° S 18:18:03 78° S
USA 238 DEB 3.3 18:13:31 10° SSW 18:19:37 78° SE 18:19:57 76° E
USA 238 3.3 18:13:38 10° SSW 18:19:44 78° SE 18:20:02 76° E
USA 215 3.3 18:22:49 59° NE 18:23:09 59° NNE 18:29:35 10° WNW
Cosmos 372 Rocket 4.4 18:22:25 10° SSW 18:26:26 55° SW 18:26:26 55° SW
Aureole 1 Rocket 4.1 18:24:17 10° SSW 18:27:16 45° SW 18:27:16 45° SW
Cosmos 2219 3.6 18:35:56 10° NW 18:41:35 61° WSW 18:41:35 61° WSW
Cosmos 1980 Rocket 2.8 18:45:01 10° SW 18:49:48 52° W 18:49:48 52° W
Cosmos 2263 Rocket 3.9 18:57:36 10° NW 19:02:26 30° WSW 19:04:58 21° SW
